{"data":{"norad_id":59261,"epoch":"2026-09-21T02:14:41.673696Z","epoch_age_seconds":110885,"freshness":"FRESH","line1":"1 59261U 24050H   26264.09353789 -.00001783  00000+0 -45701-4 0  9999","line2":"2 59261  53.1613 352.0989 0001074  87.2345 272.8780 15.31694767140481","mean_motion":15.31694767,"eccentricity":0.0001074,"inclination_deg":53.1613,"raan_deg":352.0989,"arg_perigee_deg":87.2345,"mean_anomaly_deg":272.878,"bstar":-4.5701e-5,"rev_number":14048,"period_min":94.013509154987,"perigee_km":470.0200235061,"apogee_km":471.49116563542,"semimajor_km":6848.8925945708,"source":"CELESTRAK","updated_at":"2026-09-22T09:00:48.872017Z"}}